Location: Anuling
(14.1239°N, 120.8922°E)
Time: 04:23:59
(UTC+00:00)

NATO 3D Rocket - Pass Details

Date: 14 January 2026
Orbit: 670 x 2292 km, 21.5° (Epoch: 11 February)

Event Time Altitude Azimuth Distance (km) Brightness Sun altitude
Rises 11:33:44 0° 240° (WSW) 4,531 8.7 -25.3°
Reaches altitude 10° 11:37:20 10° 236° (SW) 3,280 7.7 -26.2°
Maximum altitude 11:44:54 52° 162° (SSE) 1,186 4.3 -27.9°
Enters shadow 11:45:23 51° 146° (SE) 1,180 4.2 -28.0°
